Weather in Parma

Italy     44°48′30″N   10°19′45″E
temp.,
°C
wind,
m/s
gust,
m/s
humid.,
%
clouds,
%
prec.,
mm/h
press.,
hPa
HPBL,
m
4 march, thu
thu401:00+7sw2360100 0.0 102835
04:00+6sw336030 0.0 102637
07:00+6sw336353 0.0 102538
10:00+10nw1260100 0.0 1024285
13:00+14nne225378 0.0 1022739
16:00+14n025265 0.0 1020894
19:00+10ssw237153 0.0 101942
22:00+8sw457929 0.0 1020109
5 march, fri
fri501:00+7sw357948 0.0 1019116
04:00+7wsw127990 0.0 101834
07:00+8wsw117895 0.0 101734
10:00+11nne1172100 0.0 1017195
13:00+12ene216697 0.1 1016433
16:00+14e216265 0.1 1015563
19:00+10sse227442 0.1 101640
22:00+9ssw227868 0.1 101931
6 march, sat
sat601:00+9ese118267 0.4 102059
04:00+8ene359280 0.4 1021250
07:00+7ene7129390 3.8 1023559
10:00+5e61085100 1.8 1026638
13:00+5ese5880100 1.9 1027543
16:00+7ese466866 0.0 1027711
19:00+5se237533 0.0 102794
22:00+4se12750 0.0 102955
7 march, sun
sun701:00+3ssw11750 0.0 102922
04:00+2ssw11750 0.0 102723
07:00+2sw11750 0.0 102625
10:00+7ne116053 0.0 1025380
13:00+9ene225227 0.0 1023855
16:00+10ene225225 0.0 1021814
19:00+6e116428 0.0 102048
22:00+5ssw12710 0.0 102028
8 march, mon
mon801:00+4sw11760 0.0 101924
04:00+3wsw11807 0.0 101823
07:00+3sw118315 0.0 101823
10:00+7ene12703 0.0 1018413
13:00+11ene33634 0.0 1018984
16:00+11ene236157 0.0 10161070
19:00+9se137074 0.1 1018108
22:00+8ene127399 0.0 102068